KQ4NAL Weather Reports


Display with metric or nautical units.
time (UTC)temp
F
wind
direction
speed
MPH
gust
MPH
rain 1hr
in
rain 24hr
in
rain mn
in
humidity
%
barometer
mb
20260505013047 68 106 2.0 2.0 0.00 0.00 0.00 62 1007.0
20260505012545 69 12 2.0 2.0 0.00 0.00 0.00 61 1006.9
20260505012042 70 226 3.0 5.0 0.00 0.00 0.00 59 1007.0
20260505011537 70 102 1.0 2.0 0.00 0.00 0.00 59 1007.0
20260505011035 70 178 4.0 5.0 0.00 0.00 0.00 58 1006.8
20260505010530 70 88 3.0 5.0 0.00 0.00 0.00 59 1007.0
20260505010027 70 135 3.0 3.0 0.00 0.00 0.00 59 1006.7
20260505005523 70 191 2.0 2.0 0.00 0.00 0.00 58 1006.8
20260505005021 71 123 2.0 2.0 0.00 0.00 0.00 58 1006.6
20260505004517 71 186 3.0 3.0 0.00 0.00 0.00 57 1006.8
20260505004014 71 154 4.0 5.0 0.00 0.00 0.00 58 1006.8
20260505003511 71 169 4.0 5.0 0.00 0.00 0.00 57 1006.9
20260505003009 71 199 3.0 3.0 0.00 0.00 0.00 57 1007.0
20260505002503 71 165 4.0 5.0 0.00 0.00 0.00 56 1007.2
20260505002002 72 198 4.0 6.0 0.00 0.00 0.00 56 1007.0
20260505001459 72 290 3.0 5.0 0.00 0.00 0.00 56 1007.0
20260505000956 72 228 4.0 5.0 0.00 0.00 0.00 55 1007.3
20260505000454 73 146 3.0 5.0 0.00 0.00 0.00 54 1007.1
20260504235951 73 207 3.0 5.0 0.00 0.00 0.00 54 1007.0
20260504235448 73 139 5.0 7.0 0.00 0.00 0.00 54 1007.2
20260504234944 73 210 4.0 5.0 0.00 0.00 0.00 53 1007.2
20260504234442 73 238 5.0 5.0 0.00 0.00 0.00 52 1007.3
20260504233938 73 213 6.0 8.0 0.00 0.00 0.00 52 1007.6
20260504233434 73 211 2.0 2.0 0.00 0.00 0.00 52 1007.7
20260504232931 74 251 1.0 2.0 0.00 0.00 0.00 52 1007.5
20260504232428 74 353 1.0 2.0 0.00 0.00 0.00 51 1007.5
20260504231925 74 345 2.0 2.0 0.00 0.00 0.00 51 1007.6
20260504231421 75 120 2.0 3.0 0.00 0.00 0.00 52 1007.6
20260504230918 75 185 5.0 6.0 0.00 0.00 0.00 51 1007.7
20260504230415 75 227 9.0 10.0 0.00 0.00 0.00 50 1007.7
20260504225914 75 213 5.0 6.0 0.00 0.00 0.00 51 1007.7
20260504225410 76 117 5.0 6.0 0.00 0.00 0.00 50 1007.9
20260504224908 75 228 5.0 6.0 0.00 0.00 0.00 49 1007.7
20260504224404 75 223 8.0 11.0 0.00 0.00 0.00 47 1007.8
20260504223901 75 208 4.0 5.0 0.00 0.00 0.00 48 1007.8
20260504223356 76 165 8.0 9.0 0.00 0.00 0.00 46 1007.9
20260504222853 76 315 3.0 5.0 0.00 0.00 0.00 47 1007.8
20260504222350 76 165 8.0 10.0 0.00 0.00 0.00 47 1007.9
20260504221848 76 270 3.0 3.0 0.00 0.00 0.00 46 1007.9
20260504221345 77 157 3.0 5.0 0.00 0.00 0.00 47 1008.0
20260504220842 77 221 12.0 17.0 0.00 0.00 0.00 45 1008.1
20260504220338 76 223 3.0 5.0 0.00 0.00 0.00 47 1008.0
20260504215836 77 207 7.0 9.0 0.00 0.00 0.00 50 1008.0
20260504215332 76 156 9.0 13.0 0.00 0.00 0.00 51 1007.9
20260504214828 76 177 7.0 10.0 0.00 0.00 0.00 52 1008.0
20260504214325 76 178 4.0 7.0 0.00 0.00 0.00 51 1007.9
20260504213822 77 252 5.0 9.0 0.00 0.00 0.00 50 1007.9
20260504213318 77 152 6.0 7.0 0.00 0.00 0.00 49 1008.1
20260504212815 76 280 4.0 6.0 0.00 0.00 0.00 50 1008.1
20260504212311 76 291 3.0 3.0 0.00 0.00 0.00 54 1008.1
20260504211809 78 334 1.0 1.0 0.00 0.00 0.00 50 1008.5
20260504211305 77 69 3.0 3.0 0.00 0.00 0.00 51 1008.4
20260504210803 76 48 3.0 5.0 0.00 0.00 0.00 52 1008.4
20260504210300 77 350 5.0 7.0 0.00 0.00 0.00 52 1008.2
20260504205757 77 302 1.0 1.0 0.00 0.00 0.00 50 1008.6
20260504205254 78 327 2.0 2.0 0.00 0.00 0.00 49 1008.5
20260504204752 77 306 2.0 2.0 0.00 0.00 0.00 49 1008.5
20260504204250 77 254 5.0 7.0 0.00 0.00 0.00 50 1008.8
20260504203750 78 220 4.0 6.0 0.00 0.00 0.00 48 1008.8
20260504203246 77 320 1.0 2.0 0.00 0.00 0.00 52 1008.8
20260504202741 77 149 2.0 3.0 0.00 0.00 0.00 51 1008.9
20260504202239 75 276 2.0 3.0 0.00 0.00 0.00 54 1009.1
20260504201736 75 246 1.0 2.0 0.00 0.00 0.00 54 1009.0
20260504201233 74 152 1.0 2.0 0.00 0.00 0.00 55 1009.1
20260504200730 74 309 0.0 1.0 0.00 0.00 0.00 57 1009.5
20260504200226 74 202 3.0 3.0 0.00 0.00 0.00 58 1009.3
20260504195723 74 198 5.0 6.0 0.00 0.00 0.00 56 1009.1
20260504195219 76 165 7.0 8.0 0.00 0.00 0.00 53 1009.4
20260504194716 75 269 3.0 3.0 0.00 0.00 0.00 57 1009.4
20260504194212 75 218 4.0 5.0 0.00 0.00 0.00 55 1009.6
20260504193708 75 167 5.0 6.0 0.00 0.00 0.00 55 1009.6
20260504193206 76 282 3.0 3.0 0.00 0.00 0.00 52 1009.9
20260504192704 77 227 6.0 8.0 0.00 0.00 0.00 53 1010.0
20260504192202 75 259 4.0 6.0 0.00 0.00 0.00 56 1010.0
20260504191700 76 252 4.0 7.0 0.00 0.00 0.00 53 1009.9
20260504191156 75 317 5.0 5.0 0.00 0.00 0.00 56 1010.0
20260504190652 75 3 1.0 1.0 0.00 0.00 0.00 59 1010.1
20260504190148 74 204 5.0 8.0 0.00 0.00 0.00 56 1010.0
20260504185645 72 4 1.0 2.0 0.00 0.00 0.00 60 1010.1
20260504185136 72 238 2.0 2.0 0.00 0.00 0.00 60 1010.3
20260504184632 73 357 5.0 8.0 0.00 0.00 0.00 58 1010.2
20260504184127 72 324 2.0 3.0 0.00 0.00 0.00 61 1010.4
20260504183624 72 16 3.0 3.0 0.00 0.00 0.00 61 1010.3
20260504183122 72 209 5.0 7.0 0.00 0.00 0.00 60 1010.3
20260504182619 71 129 4.0 5.0 0.00 0.00 0.00 60 1010.2
20260504182117 72 264 3.0 5.0 0.00 0.00 0.00 62 1009.9
20260504181614 72 341 4.0 5.0 0.00 0.00 0.00 59 1010.1
20260504181111 72 340 1.0 1.0 0.00 0.00 0.00 59 1010.0
20260504180610 71 266 2.0 3.0 0.00 0.00 0.00 62 1009.9
20260504180109 70 205 7.0 9.0 0.00 0.00 0.00 62 1010.0
20260504175606 70 276 8.0 10.0 0.00 0.00 0.00 63 1010.2
20260504175102 69 139 5.0 7.0 0.00 0.00 0.00 63 1010.2
20260504174600 68 344 3.0 5.0 0.00 0.00 0.00 65 1010.2
20260504174057 68 188 7.0 8.0 0.00 0.00 0.00 65 1010.2
20260504173554 67 154 5.0 7.0 0.00 0.00 0.00 65 1010.5
20260504173051 67 201 9.0 13.0 0.00 0.00 0.00 65 1010.3
20260504172547 67 185 8.0 11.0 0.00 0.00 0.00 65 1010.2
20260504172044 67 228 5.0 6.0 0.00 0.00 0.00 65 1010.1
20260504171541 66 204 5.0 7.0 0.00 0.00 0.00 65 1010.2
20260504171038 65 198 4.0 5.0 0.00 0.00 0.00 67 1010.2
20260504170533 65 172 4.0 6.0 0.00 0.00 0.00 67 1010.1
20260504150918 65 266 2.0 2.0 0.00 0.00 0.00 67 1010.6
20260504150414 64 162 4.0 5.0 0.00 0.00 0.00 67 1010.8
20260504140841 61 184 5.0 6.0 0.00 0.00 0.00 70 1010.7
20260504140336 60 238 5.0 7.0 0.00 0.00 0.00 70 1010.8
20260504130805 56 153 6.0 8.0 0.00 0.00 0.00 74 1011.7
20260504130301 56 185 7.0 8.0 0.00 0.00 0.00 74 1011.6
20260504120225 55 238 5.0 6.0 0.00 0.00 0.00 73 1012.0
20260504110647 53 204 4.0 6.0 0.00 0.00 0.00 72 1011.4
20260504110144 52 196 2.0 2.0 0.00 0.00 0.00 74 1011.6
20260504100609 50 9 1.0 1.0 0.00 0.00 0.00 75 1011.8
20260504100107 50 7 1.0 2.0 0.00 0.00 0.00 75 1011.9
20260504082002 50 175 2.0 3.0 0.00 0.00 0.00 72 1012.3
20260504081500 49 55 3.0 3.0 0.00 0.00 0.00 72 1012.3
20260504080950 50 183 2.0 2.0 0.00 0.00 0.00 71 1012.6
20260504080447 50 94 2.0 2.0 0.00 0.00 0.00 69 1012.4
20260504050253 53 184 4.0 5.0 0.00 0.00 0.00 64 1014.2
20260504045750 53 153 1.0 2.0 0.00 0.00 0.00 64 1014.1
20260504045244 53 94 1.0 2.0 0.00 0.00 0.00 64 1013.9
20260504044742 53 125 3.0 3.0 0.00 0.00 0.00 63 1014.1
20260504044240 53 271 2.0 2.0 0.00 0.00 0.00 64 1014.1
20260504043737 53 17 1.0 2.0 0.00 0.00 0.00 64 1014.3
20260504043233 53 112 4.0 6.0 0.00 0.00 0.00 63 1014.2
20260504042731 53 165 3.0 3.0 0.00 0.00 0.00 64 1014.1
20260504042227 53 206 2.0 2.0 0.00 0.00 0.00 65 1014.3
20260504041724 52 159 3.0 5.0 0.00 0.00 0.00 65 1014.5
20260504041220 51 126 2.0 2.0 0.00 0.00 0.00 67 1014.4
20260504040716 52 234 1.0 1.0 0.00 0.00 0.00 66 1014.4
20260504040214 53 15 0.0 1.0 0.00 0.00 0.00 67 1014.5
20260504035710 53 84 1.0 1.0 0.00 0.00 0.00 66 1014.5
20260504035207 52 15 1.0 1.0 0.00 0.00 0.00 66 1014.6
20260504034704 52 353 1.0 1.0 0.00 0.00 0.00 66 1014.8
20260504034201 53 311 1.0 2.0 0.00 0.00 0.00 65 1014.7
20260504033659 53 327 1.0 2.0 0.00 0.00 0.00 64 1014.7
20260504033156 53 245 3.0 3.0 0.00 0.00 0.00 63 1014.8
20260504032653 53 337 1.0 1.0 0.00 0.00 0.00 67 1014.7
20260504032150 52 10 1.0 1.0 0.00 0.00 0.00 67 1014.7
20260504031647 52 344 1.0 1.0 0.00 0.00 0.00 67 1014.7
20260504031143 52 41 1.0 1.0 0.00 0.00 0.00 69 1014.5
20260504030640 52 9 1.0 1.0 0.00 0.00 0.00 73 1014.6
20260504030137 52 16 1.0 1.0 0.00 0.00 0.00 74 1014.8
20260504025634 51 31 1.0 1.0 0.00 0.00 0.00 76 1014.8
20260504025130 51 13 1.0 1.0 0.00 0.00 0.00 78 1014.8
20260504024628 52 353 0.0 1.0 0.00 0.00 0.00 78 1015.0
20260504024124 52 5 0.0 0.0 0.00 0.00 0.00 74 1014.8
20260504023621 53 3 0.0 0.0 0.00 0.00 0.00 73 1015.0
20260504023117 53 4 1.0 1.0 0.00 0.00 0.00 69 1014.9
20260504022614 53 0 0.0 0.0 0.00 0.00 0.00 68 1014.8
20260504022109 53 25 2.0 2.0 0.00 0.00 0.00 68 1014.5
20260504021608 53 51 1.0 1.0 0.00 0.00 0.00 68 1014.3
20260504021104 53 16 1.0 1.0 0.00 0.00 0.00 68 1014.6
20260504020601 53 61 1.0 2.0 0.00 0.00 0.00 69 1014.7
20260504020057 52 8 1.0 1.0 0.00 0.00 0.00 73 1014.9
20260504015554 52 41 1.0 1.0 0.00 0.00 0.00 72 1014.7
20260504015049 53 7 0.0 0.0 0.00 0.00 0.00 73 1014.8
20260504014546 53 3 0.0 0.0 0.00 0.00 0.00 66 1014.6
20260504014043 53 0 0.0 0.0 0.00 0.00 0.00 66 1014.7
20260504013541 54 85 1.0 2.0 0.00 0.00 0.00 63 1014.3